{"data":{"norad_id":59165,"epoch":"2026-05-24T23:22:32.507904Z","epoch_age_seconds":80513,"freshness":"FRESH","line1":"1 59165U 24044P   26144.97398736 -.00000576  00000+0 -11391-4 0  9997","line2":"2 59165  43.0035  36.0974 0001204 265.5661  94.5053 15.27581594125236","mean_motion":15.27581594,"eccentricity":0.0001204,"inclination_deg":43.0035,"raan_deg":36.0974,"arg_perigee_deg":265.5661,"mean_anomaly_deg":94.5053,"bstar":-1.1391e-5,"rev_number":12523,"period_min":94.266650348237,"perigee_km":482.21823680307,"apogee_km":483.87040926566,"semimajor_km":6861.1813230344,"source":"CELESTRAK","updated_at":"2026-05-25T13:38:18.835119Z"}}